Easton, MD

5:14 AM EDT on July 27, 2017 (GMT -0400)
Easton / Newnam

Weather History for KESN - July, 2013

Change the Weather History Date:

Saturday, July 20, 2013

  Actual Average Record
Temperature  
Mean Temperature 86 °F -  
Max Temperature 91 °F 88 °F 95 °F (1952)
Min Temperature 80 °F 69 °F 61 °F (1965)
Cooling Degree Days 20    
Growing Degree Days 36 (Base 50)    
Moisture  
Dew Point 77 °F    
Average Humidity 80    
Maximum Humidity 90    
Minimum Humidity 36    
Precipitation  
Precipitation 0.00 in - - ()
Sea Level Pressure  
Sea Level Pressure 29.91 in    
Wind  
Wind Speed 8 mph (WSW)    
Max Wind Speed 13 mph    
Max Gust Speed 23 mph    
Visibility 10 miles    
Events      
Averages and records for this station are not official NWS values.
T = Trace of Precipitation, MM = Missing Value Source: NWS Daily Summary

Daily Weather History Graph

Daily Weather History Graph

Search for Another Location

Airport or City:

Trip Planner

Search our weather history database for the weather conditions in past years. The results will help you decide how hot, cold, wet, or windy it might be!

Date:

Astronomy

Jul. 20, 2013 Rise Set
Actual Time 5:55 AM EDT 8:25 PM EDT
Civil Twilight 5:24 AM EDT 8:55 PM EDT
Nautical Twilight 4:46 AM EDT 9:33 PM EDT
Astronomical Twilight 4:04 AM EDT 10:15 PM EDT
Moon 6:26 PM EDT (7/20) 3:32 AM EDT (7/20)
Length of Visible Light 15h 31m
Length of Day
14h 29m
Waxing Gibbous, 93% of the Moon is Illuminated
Jul 20
Waxing Gibbous
Jul 22
Full
Jul 29
Last Quarter
Aug 6
New
Aug 14
First Quarter

Hourly Weather History & Observations

Time (EDT) Temp. Heat Index Dew Point Humidity Pressure Visibility Wind Dir Wind Speed Gust Speed Precip Events Conditions
12:03 AM 85.3 °F 96.7 °F 77.9 °F 78% 29.93 in 10.0 mi WSW 9.2 mph - N/A   Scattered Clouds
12:23 AM 84.7 °F 96.1 °F 77.9 °F 80% 29.93 in 10.0 mi WSW 9.2 mph 16.1 mph N/A   Clear
12:43 AM 84.4 °F 94.6 °F 77.4 °F 79% 29.92 in 10.0 mi WSW 8.1 mph - N/A   Clear
1:03 AM 84.2 °F 94.5 °F 77.4 °F 80% 29.92 in 10.0 mi WSW 8.1 mph 16.1 mph N/A   Clear
1:23 AM 83.5 °F 93.3 °F 77.4 °F 82% 29.92 in 10.0 mi WSW 9.2 mph - N/A   Clear
1:43 AM 83.5 °F 93.3 °F 77.4 °F 82% 29.92 in 10.0 mi WSW 6.9 mph - N/A   Clear
2:03 AM 82.9 °F 92.1 °F 77.4 °F 83% 29.93 in 10.0 mi WSW 8.1 mph - N/A   Clear
2:23 AM 82.8 °F 91.9 °F 77.4 °F 84% 29.93 in 10.0 mi WSW 9.2 mph - N/A   Clear
2:43 AM 82.4 °F 91.2 °F 77.4 °F 85% 29.93 in 10.0 mi West 5.8 mph - N/A   Clear
3:03 AM 82.2 °F 90.7 °F 77.4 °F 85% 29.92 in 10.0 mi WSW 5.8 mph - N/A   Clear
3:24 AM 81.5 °F 89.2 °F 77.4 °F 87% 29.92 in 10.0 mi WSW 5.8 mph - N/A   Clear
3:44 AM 81.5 °F 89.2 °F 77.4 °F 87% 29.92 in 10.0 mi WSW 6.9 mph - N/A   Clear
4:04 AM 81.5 °F 89.2 °F 77.4 °F 87% 29.91 in 10.0 mi WSW 5.8 mph - N/A   Clear
4:24 AM 81.5 °F 89.2 °F 77.2 °F 87% 29.91 in 10.0 mi WSW 9.2 mph - N/A   Clear
4:44 AM 81.1 °F 88.4 °F 77.2 °F 88% 29.90 in 10.0 mi WSW 6.9 mph - N/A   Clear
5:04 AM 80.8 °F 87.4 °F 77.0 °F 88% 29.90 in 10.0 mi WSW 6.9 mph - N/A   Clear
5:24 AM 80.8 °F 87.4 °F 77.0 °F 88% 29.90 in 10.0 mi WSW 8.1 mph - N/A   Clear
5:44 AM 80.6 °F 87.1 °F 77.0 °F 89% 29.91 in 10.0 mi WSW 8.1 mph - N/A   Clear
5:53 AM 80.6 °F 87.1 °F 77.0 °F 89% 29.91 in 10.0 mi WSW 9.2 mph - N/A   Mostly Cloudy
6:04 AM 80.2 °F 86.3 °F 77.0 °F 90% 29.92 in 10.0 mi WSW 9.2 mph - N/A   Clear
6:24 AM 80.6 °F 87.1 °F 77.0 °F 89% 29.92 in 10.0 mi WSW 8.1 mph - N/A   Clear
6:44 AM 81.1 °F 88.4 °F 77.2 °F 88% 29.93 in 10.0 mi WSW 8.1 mph - N/A   Clear
7:04 AM 80.6 °F 87.1 °F 77.0 °F 89% 29.93 in 10.0 mi WSW 6.9 mph - N/A   Clear
7:24 AM 80.8 °F 87.6 °F 77.2 °F 89% 29.93 in 10.0 mi WSW 4.6 mph - N/A   Clear
7:42 AM 82.8 °F 92.2 °F 77.9 °F 85% 29.93 in 10.0 mi West 5.8 mph - N/A   Clear
7:53 AM 80.6 °F 87.1 °F 77.0 °F 89% 29.93 in 10.0 mi SW 9.2 mph - N/A   Mostly Cloudy
8:53 AM 82.4 °F 90.9 °F 77.0 °F 84% 29.93 in 10.0 mi WSW 8.1 mph - N/A   Mostly Cloudy
9:53 AM 84.2 °F 94.1 °F 77.0 °F 79% 29.93 in 10.0 mi WSW 6.9 mph - N/A   Overcast
10:55 AM 84.2 °F 94.1 °F 77.0 °F 79% 29.95 in 10.0 mi West 9.2 mph - N/A   Overcast
11:50 AM 89.6 °F 102.2 °F 77.0 °F 66% 29.93 in 10.0 mi WSW 8.1 mph - N/A   Overcast
12:05 PM 86.5 °F 98.8 °F 77.7 °F 75% 29.93 in 10.0 mi West 10.4 mph - N/A   Clear
12:16 PM 85.8 °F 96.8 °F 77.0 °F 75% 29.93 in 10.0 mi West 8.1 mph - N/A   Clear
12:50 PM 87.8 °F 99.7 °F 77.0 °F 70% 29.92 in 10.0 mi WSW 6.9 mph - N/A   Overcast
1:48 PM 91.4 °F 91.4 °F 60.8 °F 36% 29.91 in 10.0 mi SW 8.1 mph - N/A   Mostly Cloudy
2:50 PM 91.4 °F 105.1 °F 77.0 °F 63% 29.89 in 10.0 mi West 9.2 mph - N/A   Scattered Clouds
3:50 PM 89.6 °F 102.2 °F 77.0 °F 66% 29.87 in 10.0 mi WSW 10.4 mph - N/A   Scattered Clouds
4:50 PM 91.4 °F 105.1 °F 77.0 °F 63% 29.85 in 10.0 mi SW 12.7 mph 19.6 mph N/A   Scattered Clouds
5:55 PM 89.6 °F 99.8 °F 75.2 °F 62% 29.84 in 10.0 mi SW 12.7 mph 23.0 mph N/A   Clear
6:55 PM 89.6 °F 99.8 °F 75.2 °F 62% 29.85 in 10.0 mi SW 8.1 mph - N/A   Clear
7:50 PM 86.0 °F 96.9 °F 77.0 °F 74% 29.87 in 10.0 mi WSW 6.9 mph - N/A   Clear
8:50 PM 84.2 °F 94.1 °F 77.0 °F 79% 29.88 in 10.0 mi WSW 5.8 mph - N/A   Clear
11:06 PM 82.8 °F 91.9 °F 77.4 °F 84% 29.92 in 10.0 mi WSW 8.1 mph - N/A   Clear
11:26 PM 82.8 °F 91.6 °F 77.0 °F 83% 29.92 in 10.0 mi WSW 6.9 mph - N/A   Clear
11:46 PM 82.4 °F 90.6 °F 76.6 °F 83% 29.92 in 10.0 mi WSW 6.9 mph - N/A   Clear